This demonstration page uses our WeatherBlox Daily Observations layout. Learn more.

Left ArrowRight Arrow

Hourly Observations for January 1, 2018

Temp ( °F °C ) Dew Point ( °F °C ) Humidity (%) Winds ( mph kmh ) Pressure ( in mb ) Visibility ( mi km ) Precip ( " mm )
12:53 am 00:53 Clear -14 -25.6 -20 -28.9 74 74 NNW 5 7 30.97 1049 10 16 0.00 0.00
1:53 am 01:53 Mostly Clear -12 -24.4 -19 -28.3 70 70 Calm 30.96 1049 10 16 0.00 0.00
2:53 am 02:53 Clear -12 -24.4 -17 -27.2 78 78 WSW 5 7 30.97 1049 10 16 0.00 0.00
3:53 am 03:53 Clear -13 -25 -18 -27.8 78 78 W 5 7 30.96 1049 10 16 0.00 0.03
4:53 am 04:53 Clear -13 -25 -18 -27.8 78 78 W 5 7 30.96 1048 10 16 0.00 0.00
5:53 am 05:53 Clear -14 -25.6 -19 -28.3 78 78 W 5 7 30.96 1048 10 16 0.00 0.00
6:53 am 06:53 Clear -12 -24.4 -17 -27.2 78 78 W 3 6 30.97 1049 10 16 0.00 0.00
7:53 am 07:53 Clear -14 -25.6 -20 -28.9 74 74 Calm 30.97 1049 10 16 0.00 0.00
8:53 am 08:53 Sunny -12 -24.4 -16 -26.7 81 81 Calm 30.97 1049 9 14 0.00 0.03
9:53 am 09:53 Sunny -6 -21.1 -12 -24.4 75 75 Calm 30.96 1048 10 16 0.00 0.00
10:53 am 10:53 Mostly Sunny -2 -18.9 -9 -22.8 72 72 W 5 7 30.95 1048 10 16 0.00 0.00
11:53 am 11:53 Sunny 0 -17.8 -8 -22.2 69 69 Calm 30.92 1047 10 16 0.00 0.03
12:53 pm 12:53 Sunny 1 -17.2 -8 -22.2 65 65 SW 3 6 30.91 1047 10 16 0.00 0.00
1:53 pm 13:53 Sunny 2 -16.7 -8 -22.2 63 63 S 5 7 30.86 1045 10 16 0.00 0.00
2:53 pm 14:53 Sunny 2 -16.7 -7 -21.7 65 65 S 5 7 30.84 1045 10 16 0.00 0.00
3:53 pm 15:53 Mostly Cloudy 3 -16.1 -7 -21.7 62 62 S 6 9 30.83 1044 10 16 0.00 0.00
4:53 pm 16:53 Cloudy 4 -15.6 -6 -21.1 63 63 SSE 5 7 30.81 1044 10 16 0.00 0.00
5:53 pm 17:53 Cloudy 4 -15.6 -5 -20.6 66 66 SE 8 13 30.81 1043 10 16 0.00 0.00
6:53 pm 18:53 Cloudy 3 -16.1 -4 -20 72 72 SE 6 9 30.81 1043 10 16 0.00 0.00
7:53 pm 19:53 Clear 1 -17.2 -6 -21.1 72 72 SE 7 11 30.82 1044 10 16 0.00 0.00
8:53 pm 20:53 Clear 0 -17.8 -6 -21.1 76 76 SE 3 6 30.81 1044 10 16 0.00 0.00
9:53 pm 21:53 Clear 0 -17.8 -7 -21.7 72 72 SE 6 9 30.81 1043 10 16 0.00 0.00
10:53 pm 22:53 Clear 0 -17.8 -7 -21.7 72 72 SSE 6 9 30.80 1043 10 16 0.00 0.00
11:53 pm 23:53 Clear -1 -18.3 -8 -22.2 72 72 S 5 7 30.79 1043 10 16 0.00 0.00

Powered by AerisWeather